{"data":{"norad_id":57065,"epoch":"2026-09-20T21:09:23.708160Z","epoch_age_seconds":87957,"freshness":"FRESH","line1":"1 57065U 23088T   26263.88152440 -.00002978  00000+0 -98732-4 0  9995","line2":"2 57065  42.9975  91.7624 0000941 278.9554  81.1191 15.27579526179168","mean_motion":15.27579526,"eccentricity":9.41e-5,"inclination_deg":42.9975,"raan_deg":91.7624,"arg_perigee_deg":278.9554,"mean_anomaly_deg":81.1191,"bstar":-9.8732e-5,"rev_number":17916,"period_min":94.266777964135,"perigee_km":482.40487762134,"apogee_km":483.69615311174,"semimajor_km":6861.1875153665,"source":"CELESTRAK","updated_at":"2026-09-21T09:00:33.551520Z"}}